Погода в Окленде

США     37°46′58″N   122°11′34″W
темп.,
°C
ветер,
м/с
пор.,
м/с
влажн.,
%
обл.,
%
осадки,
мм/ч
давл.,
гПа
погр.,
м
31 июля, сб
сб3123:00+14сз2290100 0.0 101524
02:00+14зсз1191100 0.0 101526
05:00+13з11927 0.0 101522
08:00+16сз228225 0.0 1017204
11:00+20зсз22636 0.0 1017318
14:00+22зсз54570 0.0 1016283
17:00+19зсз66660 0.0 1016237
20:00+16зсз46820 0.0 1016155
1 августа, вс
вс123:00+14зсз22890 0.0 101719
02:00+14зсз22910 0.0 101718
05:00+13сз11920 0.0 101716
08:00+15сз22830 0.0 1018149
11:00+21зсз22560 0.0 1017298
14:00+22зсз55520 0.0 1017280
17:00+19зсз77620 0.0 1016268
20:00+15зсз56830 0.0 1017186
2 августа, пн
пн223:00+13зсз22900 0.0 101833
02:00+13зюз01910 0.0 101815
05:00+13сз22930 0.0 101824
08:00+15зсз22830 0.0 1018146
11:00+20зсз32575 0.0 1019320
14:00+22зсз444844 0.0 1017279
17:00+21зсз455167 0.0 1016212
20:00+15зсз347463 0.0 101666
3 августа, вт
вт323:00+13зюз12855 0.0 101623
02:00+12з11870 0.0 101627
05:00+12з11921 0.0 101552
08:00+14зсз22822 0.0 1016176
11:00+19зсз32561 0.0 1016272
14:00+21зсз44512 0.0 1015274
17:00+19зсз45561 0.0 1014220
20:00+14з33830 0.0 101476
4 августа, ср
ср423:00+13з239328 0.0 1015120
02:00+13з348982 0.0 1015355
05:00+13зюз238688 0.0 1015387
08:00+14з238234 0.0 1016368
11:00+18зсз44663 0.0 1017394
14:00+18зсз56650 0.0 1016393
17:00+17з57720 0.0 1016462
20:00+15з468416 0.0 1016249